Volver al catálogo

STARLINK-1327

ActivoComunicacionesVLEO
NORAD 45555·PAYLOAD·🇺🇸 United States

Lanzado Apr 22, 2020 desde Cape Canaveral Space Force Station

Loading…

Próximos Pases (próximas 24 horas)

TLE

ActualizadoSource: CelesTrak SupGP

Época: Sep 14, 2026, 13:13 UTC

1 45555C 20025AA  26257.55118056  .00073014  00000+0  27600-3 0  2575
2 45555  53.0327 212.8506 0005887  62.3924 340.5360 15.86913457    15

Sigue STARLINK-1327 en tiempo real con AllMySat

Download on the App Store